Location: Pasadena, ca
(34.1243°N, 118.1037°W)
Time: 10:26:58
(UTC-08:00)

N. Korean satellite - Pass Details

Date: 12 November 2017
Orbit: 460 x 514 km, 97.2° (Epoch: 22 November)

Event Time Altitude Azimuth Distance (km) Brightness Sun altitude
Rises 18:06:07 0° 174° (S) 2,468 10.2 -15.9°
Reaches altitude 10° 18:08:09 10° 177° (S) 1,599 9.3 -16.3°
Maximum altitude 18:11:33 65° 259° (W) 513 6.9 -17.0°
Drops below altitude 10° 18:15:01 10° 342° (NNW) 1,623 9.3 -17.7°
Sets 18:17:05 0° 346° (NNW) 2,510 10.3 -18.1°
